Regional Weather Roundup
Issued by NWS Wakefield, VA

Home | Current Version | Previous Version | Graphics & Text | Print | Product List | Glossary On
Versions: 1 2 3 4 5 6 7 8 9 10 11 12 13 14 15 16 17 18 19 20 21 22 23 24 25 26 27
000
ASUS41 KAKQ 232015
RWRAKQ

REGIONAL WEATHER ROUNDUP
NATIONAL WEATHER SERVICE WAKEFIELD VA
400 PM EDT SAT SEP 23 2017

Note: "fair" indicates few or no clouds below 12,000 feet with no
significant weather and/or obstructions to visibility. * = Denotes
station may not report precipitation (e.g., rain,snow,etc.),
thunder or fog.

VAZ042-051-052>054-056-232100-
NORTHERN VIRGINIA

CITY           SKY/WX    TMP DP  RH WIND       PRES   REMARKS
WASH NATIONAL  MOSUNNY   88  63  43 N5        30.05F
DULLES         MOSUNNY   85  61  44 VRB3      30.06F
FORT BELVOIR   SUNNY     87  62  43 W5        30.05F
QUANTICO       MOSUNNY   84  68  58 E9        30.06F
FREDERICKSBRG* SUNNY     85  64  47 N3        30.05F
STAFFORD*      SUNNY     84  60  44 N7        30.10F
WARRENTON      SUNNY     87  55  34 NW6       30.07S
CULPEPER*      SUNNY     86  61  42 N6        30.08S
MANASSAS*      SUNNY     86  61  42 NE8       30.06F
LEESBURG*      SUNNY     86  64  48 N6        30.08F
WINCHESTER     SUNNY     82  54  36 NE6       30.08F HAZE
FRONT ROYAL*   CLEAR     84  54  34 NE6       30.08F
LURAY*         CLEAR     86  52  30 NE8       30.09F
$$

VAZ048-049-060>072-079>083-232100-
CENTRAL AND SOUTH CENTRAL VIRGINIA

CITY           SKY/WX    TMP DP  RH WIND       PRES   REMARKS
RICHMOND       MOSUNNY   86  63  45 N12G18    30.05F
CHESTERFIELD*  NOT AVBL
PETERSBURG*    SUNNY     85  55  35 N7        30.06S
HANOVER        MOSUNNY   86  64  47 VRB3      30.06F
TAPPAHANNOCK*  SUNNY     86  53  31 N6        30.07S
QUINTON*       FAIR      84  66  54 NE3       30.04F
CHARLOTTSVILLE SUNNY     87  57  35 E10       30.08F
GORDONSVILLE*  CLEAR     84  61  46 CALM      30.07F
ORANGE*        SUNNY     82  59  44 NE5       30.08S
LOUISA*        SUNNY     84  61  45 E6        30.07F
BUMPASS*       FAIR      83  64  52 N5        30.07F
FARMVILLE*     SUNNY     89  60  37 N5        30.05F
CREWE*         FAIR      84  60  44 NE5       30.06S
FORT PICKETT*  FAIR      84  59  42 CALM      30.06F
CHASE CITY*    FAIR      85  57  38 CALM      30.06F
CLARKSVILLE*   FAIR      86  54  32 NE5       30.05F
SOUTH HILL*    SUNNY     84  58  40 NE3       30.11F
LAWRENCEVILLE* FAIR      84  59  42 CALM      30.05S
EMPORIA*       SUNNY     84  61  45 N6        30.05F
$$

VAZ088>098-232100-
SOUTHEAST VIRGINIA

CITY           SKY/WX    TMP DP  RH WIND       PRES   REMARKS
NORFOLK        SUNNY     81  67  62 N9        30.04F
VIRGINIA BEACH MOSUNNY   81  65  58 N7        30.03F
NORFOLK NAVAL  PTSUNNY   83  66  56 NE9       30.05F
WEST POINT*    NOT AVBL
SALUDA*        FAIR      80  70  71 SE5       30.04F
NEWPORT NEWS   MOSUNNY   80  67  64 E8        30.04F
LANGLEY AFB    MOSUNNY   80  67  64 E7        30.04F
FORT EUSTIS    PTSUNNY   88  69  51 CALM      30.02S
WILLIAMSBURG*  MOSUNNY   88  70  55 NE3       30.05F
HR EXEC AP*    FAIR      84  68  58 E6        30.04F
FRANKLIN*      SUNNY     85  63  47 N5        30.04F
US460-WAKEFLD  SUNNY     85  66  53 VRB6      30.04F
$$

VAZ020-022-025-037-045-232100-
WEST CENTRAL AND SOUTHWEST VIRGINIA

CITY           SKY/WX    TMP DP  RH WIND       PRES   REMARKS
STAUNTON*      SUNNY     84  51  31 E9        30.12F
WAYNESBORO*    CLEAR     82  52  34 NW3       30.12S
HOT SPRINGS VA SUNNY     77  37  23 E6        30.23F
LYNCHBURG      SUNNY     84  50  30 NE8       30.09S
DANVILLE       SUNNY     86  58  38 NE6       30.05F
SOUTH BOSTON*  FAIR      86  57  36 NE5       30.05F
MARTINSVILLE   SUNNY     85  59  41 SE6       30.09F
ROANOKE        SUNNY     87  48  25 SE9       30.09F
BLACKSBURG     SUNNY     84  49  29 E9        30.16S
DUBLIN*        SUNNY     85  48  27 NE7       30.13F
MARION*        MOSUNNY   82  51  33 E6        30.16F
HILLSVILLE*    SUNNY     81  44  27 NE9       30.14F
RICHLANDS*     FAIR      83  44  25 NE7       30.14F
WISE*          SUNNY     82  52  34 N7        30.16F
ABINGDON*      MOSUNNY   89  54  30 E10       30.09F
$$

MDZ021>025-VAZ099-100-232100-
SOUTHERN MARYLAND AND THE DELMARVA PENINSULA

CITY           SKY/WX    TMP DP  RH WIND       PRES   REMARKS
PATUXENT RIVER MOSUNNY   84  64  50 N14       30.05S
BAY BRIDGE APT SUNNY     82  64  54 NW3       30.04F
LEONARDTOWN    SUNNY     81  63  54 NE3       30.07S
DOVER          SUNNY     85  74  70 N12       30.02F
GEORGETOWN     SUNNY     86  64  47 N9        30.03S
EASTON         SUNNY     86  63  45 NE9       30.07F
CAMBRIDGE      SUNNY     84  66  54 NW10      30.03S
SALISBURY      MOSUNNY   83  67  58 NE7       30.02S
OCEAN CITY     SUNNY     80  68  66 E9        30.03F
WALLOPS ISLAND PTSUNNY   79  69  71 SE8       30.04S
ACCOMACK*      SUNNY     80  69  67 NW3       30.04S
$$

NCZ012>017-030>032-232100-
NORTH CENTRAL AND EASTERN NORTH CAROLINA

CITY           SKY/WX    TMP DP  RH WIND       PRES   REMARKS
ROANOKE RAPIDS FAIR      84  61  45 NE3       30.03F
RALEIGH        MOSUNNY   86  56  35 E6G20     30.05F
ELIZABETH CITY SUNNY     83  70  64 NE9       30.03S
AHOSKIE*       SUNNY     83  63  49 N7        30.04S
EDENTON*       MOSUNNY   87  68  52 N3        30.02F
CURRITUCK*     SUNNY     79  67  66 NE7       30.04F
KILL DEVIL HLS SUNNY     74  62  64 CALM      30.02F
MANTEO         SUNNY     77  65  65 NE10      30.03F
CAPE HATTERAS  MOSUNNY   82  71  69 VRB7      30.02S
TARBORO*       NOT AVBL
GOLDSBORO      MOSUNNY   85  65  50 N8        30.01F
WASHINGTON     MOSUNNY   86  64  48 NE7       30.03S
GREENVILLE     SUNNY     86  63  45 NE6       30.05S
NEW BERN       MOSUNNY   86  65  49 E10       30.02F
WILMINGTON     MOSUNNY   85  69  58 E8        30.00F
$$

VAZ048-232100-
ELSEWHERE

CITY           SKY/WX    TMP DP  RH WIND       PRES   REMARKS
HARRISBURG PA  MOSUNNY   85  53  33 N8        30.05F
BALTIMORE      MOSUNNY   88  59  37 VRB5      30.03F
ANNAPOLIS      SUNNY     86  67  52 N3        30.03F
ANDREWS AFB    SUNNY     84  63  48 N9        30.05S
PHILADELPHIA   MOSUNNY   88  59  37 N9        30.01F
HENDERSON NC   SUNNY     83  56  40 CALM      30.05F
GREENSBORO     MOSUNNY   85  59  41 NE8       30.06F
ROCKY MOUNT    SUNNY     85  64  49 NE6       30.04F
$$

VAZ100-232100-
MARINE

STATION/POSITION TIME  TEMP    WIND        PRES    WAVE   SWELL
                       AIR SEA DIR/SP/G            HT/PER HT/PER
                 (UTC) (F)     (DEG/KT/KT) (MB)    (FT/S) (FT/S)
BRANDYWINE LGT   1936   79     320/  6/  6 1016.8F
CAPE MAY NJ      1942   78 74  320/  8/  9 1015.9F
LEWES DE         1936   77 74  340/  6/  7 1016.5F
15NM E FENWICK I 1950   74 72  330/  2/  2 1017.4F   6/ 9   5/ 9
OCEAN-CITY-INLET 1936   78 74   90/  7/ 10 1017.3F
WACHAPREAGUE VA  1936   77 79  120/  3/  5 1017.2F
THOMAS POINT MD  2000   79 76   60/  3/  3   N/A
GOOSES REEF MD   2000   79 76   30/  6/  6 1018.1    3
COVE POINT MD    1936   77     360/  7/ 10 1018.2F
SOLOMONS ISLAND  1936   80 77  350/ 11/ 14 1017.2S
BISHOPS HEAD MD  1936   79 79  280/ 11     1017.3S
PINEY POINT MD   1948           30/  9/ 10   N/A
POTOMAC MD       2000   81 77   20/ 10/ 14 1016.6    0
CAMBRIDGE MD     1936   85 78              1018.1F
LEWISETTA VA     1936   81 77   20/  6/ 11 1017.5F
RAPPAHANNOCK LGT 1948          330/  8/  9 1017.9F
STINGRAY PT      2000   77 77   60/  8/ 10 1017.6    1/ 2
YORK RVR RNG VA  1936   76      70/  9/ 11 1017.9F
YORKTOWN VA      1936   76 76   90/  9/ 10 1017.2F
JAMESTOWN VA     2000      80   10/  4/  8   N/A     0
DOMINION TERM VA 1936   81      70/  2/  5 1017.5F
KIPTOPEKE VA     1948      76  330/ 14/ 16   N/A
CHES BAY BRIDGE  1936   76 76   10/  9/ 10 1017.3F
CAPE HENRY VA    1936   76     330/  6/  7   N/A
WILLOUBY STN VA  1936   76      50/  8/  9 1017.4F
S CRANEY ISL VA  1936   78      50/ 10/ 11 1017.1F
CAPE HENRY BUOY  2000      76                N/A     4/13   3/13
1ST LANDING BUOY 2000   76 76              1017.0    2/ 4
64NM E OF VA BCH 1950   71 71  360/  8/ 12 1017.2F   9/13   8/13
DUCK PIER NC     1936   74 77   30/  8/ 10 1016.7F
44100 DUCK FRF   1905      75                N/A     6/10   3/11
44056 DUCK FRF   1930      77                N/A     5/10   3/11
OREGON INLET NC  1936   75 78   20/ 11/ 13 1016.8F
HATTERAS NC      1936   79 78   40/  8/ 10 1016.5F
DIAMOND SHLS NC  1950   76 77   20/ 10/ 12 1016.2F   7/13   7/13
CAPE LOOKOUT NC  2000   77      70/ 11/ 11 1016.1F
$$




USA.gov is the U.S. government's official web portal to all federal, state and local government web resources and services.